Madison, WI

10:59 PM CST on February 06, 2016 (GMT -0600)
Dane County Regional-Truax

Weather History for KMSN - April, 2013

Change the Weather History Date:

Wednesday, April 17, 2013

  Actual Average Record
Temperature  
Mean Temperature 40 °F 47 °F  
Max Temperature 43 °F 58 °F 86 °F (1977)
Min Temperature 37 °F 36 °F 11 °F (1875)
Degree Days  
Heating Degree Days 25 18  
Month to date heating degree days 425 359  
Since 1 July heating degree days 6765 6808  
Cooling Degree Days 0 0  
Month to date cooling degree days 0 0  
Year to date cooling degree days 0 0  
Moisture  
Dew Point 37 °F    
Average Humidity 83    
Maximum Humidity 96    
Minimum Humidity 70    
Precipitation  
Precipitation 1.29 in 0.12 in 1.29 in (2013)
Month to date precipitation 5.26 1.90  
Year to date precipitation 12.95 6.78  
Snow  
Snow 0.00 in 0.10 in 2.00 in (1940)
Month to date snowfall 0.3 1.9  
Since 1 July snowfall 70.6 50.0  
Snow Depth 0.00 in    
Sea Level Pressure  
Sea Level Pressure 30.16 in    
Wind  
Wind Speed 10 mph (East)    
Max Wind Speed 25 mph    
Max Gust Speed 33 mph    
Visibility 7 miles    
Events Rain , Thunderstorm    
T = Trace of Precipitation, MM = Missing Value Source: NWS Daily Summary

Daily Weather History Graph

Daily Weather History Graph

Search for Another Location

Airport or City:

Trip Planner

Search our weather history database for the weather conditions in past years. The results will help you decide how hot, cold, wet, or windy it might be!

Date:

Astronomy

Apr. 17, 2013 Rise Set
Actual Time 6:11 AM CDT 7:42 PM CDT
Civil Twilight 5:41 AM CDT 8:12 PM CDT
Nautical Twilight 5:05 AM CDT 8:48 PM CDT
Astronomical Twilight 4:27 AM CDT 9:27 PM CDT
Moon 11:22 AM CDT (4/17) 1:23 AM CDT (4/17)
Length of Visible Light 14h 30m
Length of Day
13h 31m
Waxing Crescent, 42% of the Moon is Illuminated
Apr 17
Waxing Crescent
Apr 18
First Quarter
Apr 25
Full
May 2
Last Quarter
May 9
New

Hourly Weather History & Observations

Time (CDT) Temp. Windchill Dew Point Humidity Pressure Visibility Wind Dir Wind Speed Gust Speed Precip Events Conditions
12:53 AM 42.1 °F 40.2 °F 34.0 °F 73% 30.32 in 10.0 mi NE 3.5 mph - N/A   Overcast
1:53 AM 42.1 °F 39.2 °F 34.0 °F 73% 30.32 in 10.0 mi ENE 4.6 mph - N/A   Overcast
2:53 AM 41.0 °F 37.1 °F 34.0 °F 76% 30.31 in 10.0 mi East 5.8 mph - N/A   Mostly Cloudy
3:53 AM 39.9 °F 35.8 °F 33.1 °F 77% 30.30 in 10.0 mi East 5.8 mph - N/A   Partly Cloudy
4:53 AM 39.0 °F 34.0 °F 33.1 °F 79% 30.29 in 10.0 mi ENE 6.9 mph - N/A   Mostly Cloudy
5:53 AM 37.9 °F 32.7 °F 32.0 °F 79% 30.27 in 10.0 mi ENE 6.9 mph - N/A   Scattered Clouds
6:53 AM 39.9 °F 34.5 °F 32.0 °F 73% 30.30 in 10.0 mi East 8.1 mph - N/A   Mostly Cloudy
7:53 AM 39.9 °F 32.5 °F 32.0 °F 73% 30.32 in 10.0 mi East 12.7 mph - N/A   Overcast
8:53 AM 39.2 °F 31.2 °F 33.8 °F 81% 30.24 in 7.0 mi ENE 13.8 mph - N/A Rain Light Rain
9:44 AM 39.2 °F 31.6 °F 35.6 °F 87% 30.25 in 3.0 mi SE 12.7 mph - 0.08 in Rain Rain
9:53 AM 39.0 °F 32.3 °F 35.1 °F 86% 30.26 in 3.0 mi ESE 10.4 mph - 0.11 in Rain Rain
10:53 AM 41.0 °F 35.2 °F 36.0 °F 82% 30.22 in 8.0 mi East 9.2 mph - 0.03 in Rain Light Rain
11:53 AM 41.0 °F 39.0 °F 37.0 °F 86% 30.26 in 5.0 mi SSE 3.5 mph - 0.05 in Rain Light Rain
12:03 PM 39.2 °F 29.8 °F 37.4 °F 93% 30.13 in 3.0 mi ENE 18.4 mph - 0.04 in Rain , Thunderstorm Thunderstorms and Rain
12:18 PM 39.2 °F 30.5 °F 37.4 °F 93% 30.14 in 3.0 mi East 16.1 mph - 0.08 in Rain Light Rain
12:31 PM 39.2 °F 32.0 °F 37.4 °F 93% 30.16 in 3.0 mi East 11.5 mph - 0.09 in Rain , Thunderstorm Light Thunderstorms and Rain
12:53 PM 39.9 °F 34.5 °F 37.0 °F 89% 30.23 in 3.0 mi ESE 8.1 mph - 0.16 in Rain , Thunderstorm Thunderstorms and Rain
1:51 PM 39.2 °F 34.2 °F 37.4 °F 93% 30.19 in 2.5 mi East 6.9 mph - 0.23 in Rain , Thunderstorm Thunderstorms and Rain
1:53 PM 39.0 °F 34.0 °F 37.0 °F 93% 30.21 in 2.5 mi East 6.9 mph - 0.24 in Rain , Thunderstorm Thunderstorms and Rain
2:38 PM 39.2 °F 30.8 °F 37.4 °F 93% 30.11 in 2.5 mi ENE 15.0 mph - 0.23 in Rain Rain
2:45 PM 39.2 °F 30.2 °F 37.4 °F 93% 30.10 in 4.0 mi East 17.3 mph 23.0 mph 0.24 in Rain Rain
2:53 PM 39.0 °F 29.9 °F 37.0 °F 93% 30.08 in 6.0 mi East 17.3 mph 27.6 mph 0.25 in Rain Light Rain
3:01 PM 39.2 °F 29.6 °F 37.4 °F 93% 30.06 in 10.0 mi ENE 19.6 mph - 0.01 in Rain Light Rain
3:53 PM 41.0 °F 33.1 °F 37.9 °F 89% 30.06 in 10.0 mi ENE 15.0 mph 26.5 mph 0.01 in   Overcast
4:53 PM 41.0 °F 33.9 °F 37.9 °F 89% 30.06 in 10.0 mi ENE 12.7 mph 20.7 mph N/A   Overcast
5:53 PM 41.0 °F 33.9 °F 39.0 °F 93% 30.04 in 10.0 mi East 12.7 mph - N/A   Overcast
6:53 PM 41.0 °F 32.5 °F 39.0 °F 93% 29.97 in 10.0 mi East 17.3 mph 24.2 mph N/A   Overcast
7:53 PM 42.1 °F 35.7 °F 39.9 °F 92% 29.94 in 10.0 mi ENE 11.5 mph - N/A   Overcast
8:53 PM 43.0 °F 41.3 °F 41.0 °F 93% 29.96 in 10.0 mi Variable 3.5 mph - 0.00 in Rain Light Rain
9:53 PM 42.1 °F 37.7 °F 41.0 °F 96% 29.90 in 7.0 mi East 6.9 mph - 0.01 in Rain Light Rain
10:53 PM 42.1 °F 36.6 °F 41.0 °F 96% 29.90 in 3.0 mi NE 9.2 mph - 0.09 in Rain Light Rain
11:53 PM 43.0 °F 37.7 °F 41.0 °F 93% 29.91 in 3.0 mi NE 9.2 mph - 0.20 in Rain Rain